COSMOS 1275 DEB, 39964

Orbit data source: Space-Track

COSMOS 1275 DEB, 39964 is space debris in LEO originally from a launch on Thu, 04 Jun 1981 UTC launched from the Plesetsk Missile And Space Complex (PKMTR). Debris objects in space refer to the collection of defunct objects orbiting the Earth. Examples of debris include non-operational satellites, rocket bodies, and fragments generated from explosions, collisions, or faulty payload assembly.

Loading next visibility...
Identifier
39964, 1981-053PA
Orbit
LEO
Country
Flag of CISCIS
Related business
Manufacturer
Unknown
Mission
Spacecraft
Bus & Motor
Unknown
Mass
Unknown
Launch date (UTC)
1981-06-04 (45 years ago)
Launch vehicle
Unknown
Launch site
Plesetsk Missile And Space Complex (PKMTR)
Object type
Payload
Rocket body
Debris
Shape & HBR
Unknown shape, 0.1 m
Radar Cross Section
Small (<0.1 m²)

Expand to show TLE details & history
Last TLE update: 16 hours ago

TLE from 16 hours ago
0 COSMOS 1275 DEB
1 39964U 81053PA  26131.73622134  .00055532  00000-0  21965-2 0  9994
2 39964  83.0469 229.3814 0016512 240.9159 278.0027 15.25103361632652
Epoch: 2026-05-11T17:40Z
TLE epoch observation values (Epoch: 2026-05-11T17:40:09.523Z)
Latitude
21.11433°
Longitude
-87.86327°
Altitude
491.689 km
Speed
7.622 km/s
True Right ascension
03h 06m 47s
True Declination
20° 59' 40"
Sunlit
Object was in daylight at epoch
Visualization orbit readout
Latitude
Unknown
Longitude
Unknown
Altitude
Unknown
Speed
Unknown
Apparent Right ascension
Unknown
Apparent Declination
Unknown
Sunlit
N/A
Visualization observer readout
Local Sidereal Time
18:10:33
Azimuth
Unknown
Elevation
Unknown
Doppler factor
Unknown
Orbital elements
Apogee altitude
498.752 km
Perigee altitude
476.079 km
Semi-major axis
6,865.552 km
Eccentricity
0.00165
Inclination
83.0469°
RAAN
229.3814°
Arg. of periapsis
240.9159°
True anomaly
277.81528°
Mean anomaly
278.0027°
Eccentric anomaly
277.90899°
Mean motion
3.81531 °/min
Orbital period
94.36 mins
BSTAR
0.0021965
Loading maneuver chart data...
Computing Atmospheric mass density...
Loading historical data...
Loading historical data...
Loading historical data...
Loading historical data...
Loading historical data...
Loading historical data...
Loading historical data...

Documentation

Showing up to 5 results
|